Temperature
17 17 17 18 15 13 15 16 16 16 16 16 17 17 16 16 16 17 16 16 16 16 16 15 15 15 15 15 15 15 15 15 15 15 15 15 14 14 14 14 14 14 14 14 14 14 14 14 14
16 17 17 17 13 14 15 15 15 16 17 16 16 16 16 15 16 16 16 16 16 16 15 15 15 15 15 15 15 15 15 15 15 15 15 14 14 14 14 14 14 14 14 14 14 14 14 14 14
16 17 17 12 13 14 16 16 15 16 16 16 16 16 15 15 16 16 16 16 16 15 15 15 15 14 14 14 14 14 14 14 14 15 14 14 14 14 14 14 14 14 14 14 14 14 14 14 14
16 17 15 12 14 14 15 15 15 15 16 16 15 15 15 15 15 16 16 16 15 15 15 14 14 14 14 14 14 14 14 14 14 14 14 14 14 14 14 14 14 14 14 14 14 14 13 13 13
16 16 12 12 13 14 13 14 15 15 15 15 15 14 14 15 15 15 15 15 15 15 15 14 14 14 14 14 14 14 14 14 14 14 14 14 14 14 14 14 13 13 13 13 13 13 13 13 13
16 12 12 12 13 14 13 14 15 14 14 14 14 14 14 14 15 15 15 15 15 15 14 14 14 14 14 14 14 14 14 13 14 14 14 14 14 14 14 13 13 13 13 13 13 13 13 13 13
14 11 12 13 13 14 14 14 14 13 13 14 15 13 14 14 14 14 15 14 14 14 14 14 14 14 13 13 14 14 13 13 13 13 13 13 13 13 13 13 13 13 13 13 13 13 13 13 13
15 11 12 12 13 13 14 14 14 14 13 14 14 13 13 14 14 14 14 14 14 14 14 13 13 13 13 13 13 13 13 13 13 13 13 13 13 13 13 13 13 13 13 13 13 12 12 12 12
14 10 11 12 12 13 13 13 14 14 13 13 13 14 14 14 13 14 14 13 13 13 13 13 13 13 13 13 13 13 13 13 13 13 13 13 13 13 13 13 12 12 12 12 12 12 12 12 12
12 10 11 12 12 12 12 13 13 13 12 12 13 13 13 14 13 13 13 13 13 13 13 13 13 13 13 12 12 12 12 12 12 12 12 12 13 13 13 12 12 12 12 12 12 12 12 12 12
11 10 11 12 12 12 12 12 12 12 11 12 13 13 13 13 13 13 13 13 13 13 13 13 12 12 12 12 12 12 12 12 12 12 12 12 12 12 12 12 12 12 12 12 12 12 11 11 11
10 10 11 11 12 12 12 12 11 11 12 13 13 13 13 13 13 13 13 13 12 12 12 12 12 12 12 12 12 12 12 12 12 12 12 12 12 12 12 12 12 12 11 11 11 11 11 11 11
10 10 10 11 11 11 11 11 11 11 12 13 13 12 12 13 13 12 12 12 12 12 12 12 12 12 12 12 12 12 12 12 12 12 12 12 12 12 12 11 11 11 11 11 11 11 11 11 11
10 10 10 10 11 11 10 10 10 11 12 12 12 12 12 12 12 12 12 12 12 12 12 11 11 11 11 11 11 11 11 11 11 11 11 11 11 11 11 11 11 11 11 11 11 10 10 10 10
10 9 9 10 10 10 10 9 9 11 11 11 11 11 11 11 11 12 12 12 12 11 11 11 11 11 11 11 11 11 11 11 11 11 11 11 11 11 11 11 11 10 10 10 10 10 10 10 10
9 9 9 9 9 9 10 9 9 10 10 10 10 10 10 11 11 11 11 11 11 11 11 11 11 11 11 11 10 10 10 10 10 10 10 10 10 10 10 10 10 10 10 10 10 10 10 10 10
8 8 8 9 8 8 8 8 8 9 9 9 9 10 10 10 10 11 11 11 11 11 11 11 10 10 10 10 10 10 10 10 10 10 10 10 10 10 10 9 9 9 9 9 9 9 9 9 9
8 7 8 8 8 7 7 7 7 8 8 8 8 9 9 10 10 10 10 10 10 10 10 10 10 10 10 10 10 10 9 9 9 9 9 9 9 9 9 9 9 9 9 9 9 9 9 9 9
8 7 7 7 7 7 6 6 7 7 7 7 7 8 8 9 10 10 10 10 10 10 10 10 10 10 10 10 9 9 9 9 9 9 9 9 8 8 8 8 8 8 8 8 8 8 8 8 8
7 7 7 7 7 7 6 6 6 6 6 7 7 7 8 9 9 9 9 9 10 10 10 9 10 9 9 9 9 9 9 9 9 8 8 8 8 8 8 8 8 7 7 7 7 7 7 7 7
7 6 6 7 6 6 6 6 7 6 6 7 7 8 8 8 9 9 9 9 9 9 9 9 9 9 9 9 8 8 8 8 8 8 8 8 7 7 7 7 7 7 7 7 7 7 7 7 6
6 6 6 6 6 5 6 6 6 6 6 6 6 7 7 8 8 9 9 9 9 9 9 9 9 9 8 8 8 8 8 8 8 7 7 7 7 7 7 6 6 7 6 6 6 6 6 6 6
6 6 6 5 5 4 4 5 5 5 6 6 6 7 7 7 8 8 8 9 9 8 8 8 8 8 8 8 7 7 7 7 7 7 7 6 6 6 6 6 6 6 6 6 6 6 5 5 5
5 5 4 3 3 4 4 4 5 5 6 6 6 6 7 7 7 7 8 8 8 8 8 8 7 7 7 7 7 7 7 6 6 6 6 6 6 6 5 5 5 5 5 5 5 5 5 5 4
5 4 4 4 3 4 4 4 5 5 5 5 5 6 6 6 7 7 7 7 7 7 7 7 7 7 7 6 6 6 6 6 6 6 6 5 5 5 5 5 5 5 5 5 5 4 4 4 4
4 5 4 5 4 4 3 4 4 4 4 5 5 5 6 6 6 6 6 7 7 7 7 7 6 6 6 6 6 6 5 5 5 5 5 5 5 5 4 4 4 4 4 4 4 4 4 3 3
4 3 4 3 2 3 3 3 4 4 4 4 4 4 5 5 6 6 6 6 6 6 6 6 6 6 5 5 5 5 5 5 5 5 4 4 4 4 4 4 4 4 3 3 3 3 3 3 3
4 3 2 2 3 4 4 4 4 4 4 3 3 3 4 5 5 5 5 5 6 6 5 5 5 5 5 5 5 5 4 4 4 4 4 4 4 4 4 3 3 3 3 3 3 3 3 3 2
3 3 2 1 2 3 4 5 4 4 3 3 3 3 4 4 4 5 5 5 5 5 5 5 5 5 5 4 4 4 4 4 4 4 4 4 3 3 3 3 3 3 2 2 2 2 2 2 2
2 2 2 2 2 1 2 4 4 3 3 3 3 3 4 4 4 4 4 4 4 4 4 4 4 4 4 4 4 4 3 3 3 3 3 3 3 3 3 2 2 2 2 2 2 2 2 2 2
Wind_Speed
8 4 2 4 5 4 2 4 2 1 1 0 1 3 6 4 3 2 0 2 4 6 8 10 11 11 11 10 10 10 10 9 9 9 9 9 9 10 10 10 10 10 10 10 10 10 11 11 11
3 2 5 5 5 1 5 4 3 3 2 3 3 3 3 1 1 2 1 1 5 7 8 9 11 11 11 10 10 10 10 9 9 8 8 8 9 9 9 9 9 9 9 10 10 10 10 10 10
1 4 5 5 4 5 4 3 4 1 1 2 3 2 2 1 0 2 1 3 6 6 7 9 11 11 11 10 9 9 9 9 9 9 8 8 8 8 9 8 8 9 9 9 9 9 9 9 9
3 5 5 4 4 5 4 2 2 1 2 2 3 2 1 2 1 1 3 5 7 6 6 8 11 11 10 10 9 8 9 8 9 9 8 8 8 8 8 7 7 8 8 8 9 8 8 8 8
4 4 4 0 4 4 3 3 2 2 2 1 3 2 0 4 3 4 6 6 7 6 6 7 9 10 9 9 9 8 8 8 8 8 7 7 7 7 7 7 7 7 6 7 7 7 7 7 7
4 4 3 4 5 3 3 1 2 2 2 1 3 3 1 3 4 4 5 6 6 6 6 6 8 9 9 9 9 8 8 7 7 7 7 6 6 6 6 6 6 6 6 6 6 6 6 6 6
4 4 4 4 3 3 2 1 2 3 2 2 3 4 1 1 2 4 6 6 6 6 6 5 6 7 8 8 8 7 7 7 6 6 6 6 6 6 5 5 5 5 5 5 5 5 5 5 5
4 4 2 3 3 4 2 1 1 3 2 0 3 5 3 1 3 6 7 6 6 5 5 4 5 6 7 7 7 7 7 6 6 6 6 6 6 5 6 5 5 4 5 5 4 4 4 5 4
4 3 4 5 5 3 1 1 1 1 3 2 1 1 0 6 7 7 6 5 4 4 3 4 4 5 6 6 6 6 6 6 6 5 5 5 4 4 4 4 4 4 4 4 4 4 5 5 4
4 4 6 3 3 2 1 1 1 2 2 1 2 3 5 7 8 7 6 5 4 3 2 2 3 4 5 5 5 5 5 5 5 4 4 4 4 4 4 4 5 5 5 5 5 5 5 5 4
3 5 3 2 1 0 1 1 1 3 1 4 4 4 6 6 6 6 5 4 3 3 2 2 2 4 4 4 4 4 4 4 4 4 4 3 4 4 5 4 4 4 5 4 4 4 4 4 4
2 1 1 1 1 0 0 0 1 1 4 2 3 6 7 8 7 6 6 4 3 3 2 2 2 3 3 4 3 3 3 3 3 3 3 3 3 3 3 3 3 3 3 3 3 3 3 3 3
2 1 0 1 1 1 1 0 1 2 4 1 3 6 7 7 5 4 3 3 3 3 2 2 3 3 3 3 3 3 3 3 3 3 3 3 2 2 2 2 2 2 2 2 2 2 2 2 3
2 1 2 2 1 1 1 2 1 5 1 3 4 5 5 6 5 4 3 3 3 3 2 2 3 2 3 3 2 2 3 3 3 3 2 3 3 3 2 1 2 2 1 1 1 1 1 1 2
1 1 3 2 1 1 0 4 4 3 2 2 3 3 3 3 4 5 5 4 4 3 3 3 2 2 3 2 2 3 3 3 3 2 2 3 3 3 3 2 1 1 1 2 2 2 2 1 2
2 1 2 3 0 0 2 7 4 1 3 2 2 3 3 2 3 3 3 3 3 3 3 3 3 3 2 2 2 2 3 3 3 2 2 2 2 3 3 1 0 1 1 2 1 1 1 1 1
2 2 4 4 0 1 3 7 4 1 2 4 4 3 3 2 2 2 2 3 3 3 3 3 3 3 2 2 2 2 2 2 2 2 2 2 2 2 2 1 0 1 1 1 1 1 1 0 1
4 3 3 4 2 1 3 7 7 3 2 4 4 3 3 4 4 2 2 2 2 2 3 3 3 2 2 2 2 2 2 2 3 2 2 1 1 1 1 1 1 1 1 1 1 1 0 0 0
3 3 4 4 2 1 5 8 10 6 3 5 5 4 4 5 3 1 1 1 2 2 2 3 3 2 2 1 1 1 0 0 1 2 2 1 1 1 1 0 0 1 2 2 1 1 1 1 1
2 2 3 3 2 1 4 9 8 6 5 6 6 6 6 4 2 2 1 1 2 3 2 3 2 2 2 1 1 1 1 1 1 1 2 1 1 1 0 1 1 1 2 1 1 1 1 0 1
4 6 5 3 3 2 3 7 5 4 3 4 4 5 5 6 5 3 2 2 2 2 2 2 2 2 2 1 2 2 2 2 1 0 1 2 1 1 1 1 1 2 2 3 3 3 3 2 1
5 4 4 2 0 3 1 5 7 4 5 4 4 3 4 4 4 3 3 2 2 2 2 2 2 2 2 2 2 2 2 1 1 1 1 2 2 1 2 1 2 2 2 3 3 3 3 3 2
3 1 2 2 2 3 2 3 8 3 5 6 5 4 4 3 4 4 4 3 2 2 2 2 2 2 2 2 2 2 1 1 0 0 1 1 2 2 2 2 2 2 2 3 3 3 3 3 3
3 3 3 3 2 4 6 5 7 5 6 6 4 3 3 2 3 3 2 2 1 1 1 2 2 1 1 2 2 2 2 1 1 1 1 2 1 2 2 2 2 2 2 3 3 3 3 3 3
3 3 2 3 2 6 3 5 9 6 5 5 6 4 1 1 1 1 1 1 1 1 1 1 2 1 1 1 1 2 2 2 3 2 2 2 1 2 3 2 2 2 2 2 2 2 3 3 3
4 6 6 5 5 4 2 7 7 4 3 2 2 2 1 0 1 1 1 1 1 0 0 1 1 1 1 1 1 1 1 2 2 2 2 2 2 2 2 2 2 2 2 2 2 2 2 2 3
4 4 4 4 1 3 5 6 7 2 2 2 1 1 0 1 1 0 0 1 1 1 1 1 1 1 1 1 1 1 1 1 2 2 2 2 2 2 1 1 1 1 1 1 1 2 2 2 3
3 6 4 4 4 5 5 5 5 3 2 2 1 1 2 1 1 1 0 0 0 0 0 0 1 1 1 1 1 1 2 2 2 1 2 2 2 1 1 1 1 1 1 1 1 1 1 2 3
3 3 3 3 4 4 4 7 4 5 4 3 2 2 2 2 1 1 1 1 0 1 1 1 1 1 1 1 1 1 1 1 1 1 2 2 1 1 1 1 1 1 1 2 1 1 2 2 2
4 5 6 5 4 4 4 7 2 3 2 2 2 2 2 2 1 1 0 1 1 1 1 1 1 1 1 1 1 1 1 1 1 1 2 1 1 1 1 1 1 1 2 2 2 2 2 3 3
Wind_Direction
343 4 65 58 58 54 239 250 228 226 215 262 101 127 144 150 158 181 340 124 129 140 149 151 148 143 137 134 130 127 122 117 113 109 106 105 102 100 99 96 92 89 85 88 89 86 85 83 80
346 27 56 63 97 163 264 247 217 218 181 125 73 82 98 113 38 107 106 164 128 133 140 143 142 138 134 134 132 128 123 119 117 112 107 104 104 103 101 98 95 91 87 88 89 87 85 85 84
20 50 82 84 132 188 228 237 206 231 123 113 88 58 120 165 134 172 220 145 116 119 131 138 139 137 134 131 132 129 123 120 117 112 105 102 103 104 101 99 97 93 91 89 91 88 85 83 83
70 50 59 89 203 221 225 254 191 122 76 58 110 87 35 7 253 212 119 121 114 110 118 134 138 135 130 128 126 128 124 120 116 111 104 102 101 101 102 101 99 95 93 90 88 88 85 83 81
58 80 80 124 243 251 250 266 184 148 155 82 115 131 351 360 36 91 112 114 119 112 109 123 135 133 130 126 122 118 120 117 114 111 108 104 100 99 101 101 100 99 97 94 89 83 85 85 84
59 74 116 220 243 263 268 252 151 140 146 112 122 133 232 19 67 97 106 105 110 114 104 113 124 126 123 118 115 112 112 115 115 111 106 101 98 98 99 98 95 96 93 89 85 80 77 84 85
113 118 176 203 237 268 274 195 145 156 152 206 161 134 281 7 77 105 99 93 92 96 95 93 108 116 118 115 114 114 112 111 113 114 105 97 88 86 89 91 93 92 88 86 83 78 72 72 79
124 122 168 209 209 251 296 110 123 144 189 37 129 146 204 210 114 98 90 86 87 84 85 86 92 103 108 107 110 110 109 104 102 106 103 97 87 80 76 72 75 80 81 77 75 73 67 59 64
91 100 202 212 194 241 343 108 17 50 105 67 70 135 145 123 116 102 91 84 90 94 80 85 89 95 105 110 109 107 106 99 96 97 103 99 88 82 78 69 69 69 70 70 68 70 65 57 53
106 177 218 213 191 201 27 127 152 83 64 56 37 44 84 114 124 127 128 134 135 132 113 88 97 96 101 108 104 98 99 94 92 93 99 98 91 83 80 74 69 64 60 60 57 58 61 57 49
154 194 214 250 245 179 100 347 74 134 210 216 191 163 129 129 136 144 149 147 154 143 108 86 89 94 97 96 100 96 96 94 91 89 97 105 97 88 79 77 68 64 60 55 50 50 47 46 45
167 243 224 283 320 337 198 269 25 171 220 223 185 152 148 156 164 167 163 154 136 120 110 94 82 93 95 100 101 103 97 95 91 91 95 102 95 84 81 80 73 67 64 62 53 47 42 41 35
194 253 295 301 7 22 59 204 228 266 273 347 120 137 161 168 170 161 150 138 129 127 127 118 95 97 100 95 92 91 94 100 107 97 100 111 107 104 90 84 81 72 68 75 62 46 38 25 16
194 212 281 299 298 11 77 305 255 266 269 118 138 162 173 171 171 150 145 153 150 152 152 133 106 97 100 98 99 93 94 97 98 93 103 116 112 107 105 94 78 61 59 73 87 59 39 7 4
123 359 328 300 236 242 77 305 236 244 119 138 167 181 179 183 173 176 181 180 172 162 147 133 128 96 95 102 100 95 103 101 89 96 103 109 115 116 115 118 115 83 80 70 59 44 44 20 7
66 56 286 294 188 328 143 256 261 171 147 205 210 198 196 211 205 200 184 178 171 155 143 139 130 116 106 90 94 90 95 97 88 89 93 101 116 120 109 109 147 97 92 78 104 82 38 8 354
52 216 243 293 324 118 174 247 275 349 185 233 232 218 211 220 241 224 184 176 171 166 149 139 134 139 143 117 95 92 85 82 83 84 83 92 105 118 113 113 93 109 105 110 161 96 108 0 341
210 211 237 246 291 179 226 254 278 295 250 251 250 236 220 220 240 231 197 184 163 150 141 134 126 128 127 105 87 75 62 50 56 65 65 80 94 110 116 99 96 119 156 188 184 166 98 142 313
162 181 238 262 301 236 241 259 271 281 261 252 250 239 228 233 245 212 186 173 147 132 134 137 132 130 120 111 124 122 126 186 52 32 42 40 61 111 126 122 106 149 203 216 202 173 130 49 54
175 213 252 285 330 259 277 270 264 252 235 230 227 230 229 236 246 222 171 156 166 171 170 157 156 145 144 165 171 162 143 167 153 44 18 4 2 355 164 187 209 205 212 219 205 149 135 45 52
214 212 223 242 329 355 326 293 265 265 248 245 233 229 230 221 225 223 199 189 182 179 183 175 172 158 147 130 101 86 76 60 33 300 297 331 321 313 286 253 241 229 213 216 213 189 173 191 237
237 225 203 206 275 285 358 283 273 264 271 250 247 240 242 238 225 215 204 200 195 194 165 155 152 148 151 142 141 139 157 198 228 263 261 309 328 321 294 277 252 246 233 224 219 203 204 190 209
207 135 155 182 185 291 258 237 281 271 256 250 246 242 245 238 221 215 213 207 197 177 149 142 130 135 137 138 149 149 160 197 225 261 285 301 319 320 308 287 266 254 244 234 220 217 215 209 201
152 75 62 58 93 259 231 205 272 242 233 241 240 251 252 248 240 228 209 167 144 104 98 116 126 127 123 135 148 165 179 183 186 276 279 297 299 303 307 291 274 262 252 236 223 215 216 219 208
116 107 26 333 303 247 210 213 251 255 248 222 226 243 266 243 224 212 176 138 124 106 123 139 134 129 127 142 169 193 210 207 212 233 240 264 286 292 288 296 273 269 259 243 222 208 211 206 199
187 166 173 207 231 273 240 233 253 271 291 264 213 209 203 262 246 221 203 174 170 174 151 147 148 154 147 183 222 224 230 225 235 239 237 240 250 263 282 305 309 302 285 261 222 208 214 203 205
157 194 176 142 141 270 259 276 293 290 350 17 36 83 254 283 309 300 163 130 164 178 198 191 178 188 207 231 245 256 256 250 251 252 237 244 253 270 286 300 294 298 293 265 221 213 214 204 211
158 148 123 152 186 248 273 262 246 247 269 311 328 297 276 310 347 351 9 23 313 205 183 106 133 211 233 243 246 259 267 258 239 232 237 247 255 274 275 285 265 266 267 254 216 242 228 216 227
154 152 147 149 169 186 251 263 229 214 216 217 240 254 262 279 290 303 309 332 26 45 60 30 11 337 287 263 270 287 284 275 251 233 245 241 238 250 248 250 248 234 245 253 222 234 233 229 243
190 185 163 173 221 198 215 264 290 211 216 206 240 273 289 282 274 267 320 13 20 12 10 359 335 306 292 288 268 266 275 279 263 262 263 255 241 250 247 255 249 247 253 251 233 243 248 234 243
Height
1495 1496 1497 1499 1503 1515 1514 1508 1504 1502 1502 1501 1501 1502 1503 1506 1510 1514 1510 1509 1511 1513 1515 1517 1519 1521 1522 1523 1524 1525 1526 1527 1528 1529 1529 1530 1530 1531 1531 1531 1532 1532 1532 1532 1533 1533 1534 1534 1534
1495 1496 1498 1499 1510 1520 1515 1505 1503 1501 1500 1500 1501 1502 1503 1504 1506 1507 1507 1509 1511 1513 1515 1517 1519 1521 1522 1523 1524 1525 1526 1527 1528 1529 1530 1530 1531 1531 1532 1532 1532 1532 1533 1533 1533 1533 1534 1534 1535
1495 1496 1498 1502 1512 1515 1508 1501 1500 1499 1500 1500 1501 1502 1504 1505 1506 1507 1508 1509 1511 1513 1515 1517 1519 1521 1522 1523 1524 1525 1526 1527 1528 1529 1530 1530 1531 1531 1532 1532 1533 1533 1533 1533 1534 1534 1534 1535 1535
1495 1497 1499 1507 1509 1506 1502 1499 1499 1499 1500 1500 1501 1503 1504 1506 1507 1507 1508 1510 1511 1513 1515 1517 1519 1521 1522 1523 1524 1525 1526 1527 1528 1529 1529 1530 1531 1531 1532 1532 1533 1533 1533 1534 1534 1534 1534 1535 1535
1495 1497 1504 1511 1507 1502 1500 1498 1498 1499 1500 1501 1502 1503 1504 1506 1506 1507 1508 1510 1512 1513 1515 1517 1519 1521 1522 1523 1524 1525 1526 1527 1528 1528 1529 1530 1531 1531 1532 1532 1533 1533 1533 1534 1534 1534 1535 1535 1535
1496 1498 1510 1512 1505 1500 1498 1498 1498 1499 1500 1500 1502 1503 1504 1506 1506 1507 1509 1510 1512 1513 1515 1517 1519 1520 1521 1522 1523 1524 1525 1526 1527 1528 1529 1530 1530 1531 1531 1532 1532 1533 1533 1533 1534 1534 1534 1535 1535
1496 1502 1507 1506 1504 1501 1498 1497 1498 1498 1499 1501 1501 1503 1504 1505 1506 1508 1509 1511 1512 1514 1515 1517 1518 1519 1520 1521 1523 1524 1525 1526 1526 1527 1528 1529 1529 1530 1531 1531 1532 1532 1533 1533 1533 1534 1534 1534 1534
1495 1500 1504 1506 1504 1501 1498 1497 1497 1498 1499 1501 1501 1502 1503 1505 1505 1507 1509 1510 1512 1513 1515 1516 1518 1519 1520 1521 1522 1523 1524 1525 1526 1527 1527 1528 1529 1529 1530 1531 1531 1532 1532 1532 1532 1533 1533 1533 1534
1495 1503 1506 1503 1502 1499 1497 1497 1498 1499 1499 1500 1501 1502 1503 1503 1505 1506 1508 1510 1511 1513 1514 1515 1517 1518 1519 1520 1521 1522 1523 1524 1525 1526 1527 1527 1528 1529 1529 1530 1530 1531 1531 1531 1531 1532 1532 1532 1533
1495 1503 1501 1498 1497 1497 1497 1497 1497 1498 1499 1500 1500 1501 1501 1502 1504 1505 1506 1508 1510 1511 1513 1515 1516 1517 1518 1519 1520 1521 1522 1523 1524 1525 1525 1526 1527 1527 1528 1529 1529 1529 1530 1530 1530 1530 1531 1531 1531
1495 1498 1497 1496 1496 1496 1496 1497 1497 1498 1499 1498 1498 1499 1500 1502 1503 1504 1506 1507 1509 1510 1512 1513 1515 1516 1517 1518 1519 1520 1521 1522 1523 1523 1524 1525 1525 1526 1526 1527 1527 1528 1528 1528 1528 1529 1529 1529 1529
1496 1496 1496 1496 1496 1496 1496 1497 1497 1497 1497 1497 1498 1498 1498 1500 1501 1503 1504 1506 1508 1509 1511 1512 1514 1515 1516 1517 1518 1519 1520 1520 1521 1522 1522 1523 1524 1524 1524 1525 1525 1526 1526 1526 1527 1527 1527 1527 1528
1495 1496 1495 1496 1496 1496 1496 1496 1497 1496 1496 1496 1496 1497 1497 1498 1500 1502 1504 1506 1507 1508 1510 1511 1512 1513 1514 1515 1516 1517 1518 1519 1520 1520 1521 1521 1522 1522 1522 1523 1523 1524 1524 1524 1524 1525 1525 1525 1525
1494 1495 1495 1495 1495 1496 1496 1496 1496 1494 1494 1494 1495 1495 1496 1497 1499 1500 1502 1504 1505 1507 1508 1510 1511 1512 1513 1513 1514 1516 1516 1517 1518 1518 1519 1519 1519 1520 1520 1520 1521 1521 1521 1522 1522 1522 1523 1523 1523
1494 1495 1495 1494 1495 1495 1496 1497 1495 1493 1494 1493 1493 1494 1495 1496 1497 1499 1500 1502 1504 1505 1507 1508 1509 1511 1511 1512 1512 1513 1514 1515 1516 1516 1517 1517 1517 1517 1517 1518 1518 1519 1519 1519 1519 1520 1520 1520 1520
1494 1497 1499 1495 1494 1495 1499 1498 1493 1492 1492 1492 1492 1493 1493 1495 1496 1497 1499 1501 1502 1504 1505 1506 1508 1509 1510 1510 1510 1511 1512 1513 1513 1514 1514 1514 1515 1515 1515 1515 1515 1516 1516 1516 1516 1516 1517 1517 1517
1499 1501 1500 1497 1495 1495 1498 1497 1492 1491 1491 1490 1490 1490 1491 1492 1493 1495 1497 1498 1500 1502 1503 1504 1506 1507 1507 1508 1508 1509 1509 1510 1511 1511 1512 1512 1512 1512 1512 1512 1512 1513 1513 1513 1513 1513 1513 1513 1513
1500 1501 1500 1499 1496 1496 1497 1496 1491 1490 1490 1489 1488 1488 1489 1489 1491 1493 1494 1496 1498 1499 1501 1502 1503 1504 1505 1506 1506 1506 1507 1507 1508 1508 1509 1509 1509 1509 1509 1509 1509 1510 1510 1510 1510 1510 1510 1510 1510
1496 1498 1500 1498 1496 1497 1497 1495 1490 1488 1488 1487 1487 1486 1486 1487 1489 1491 1492 1494 1495 1496 1498 1499 1500 1501 1502 1502 1503 1503 1503 1504 1505 1506 1506 1506 1506 1506 1506 1506 1506 1506 1506 1506 1507 1506 1506 1506 1506
1496 1499 1500 1498 1497 1497 1498 1494 1488 1486 1485 1484 1484 1484 1484 1485 1486 1488 1490 1491 1492 1493 1495 1496 1497 1498 1499 1500 1500 1501 1501 1501 1502 1503 1503 1503 1503 1503 1503 1503 1503 1503 1503 1503 1503 1503 1502 1503 1503
1497 1499 1499 1499 1498 1498 1499 1492 1487 1483 1482 1482 1481 1481 1482 1483 1483 1485 1487 1488 1490 1491 1492 1494 1495 1496 1497 1497 1498 1498 1499 1499 1499 1499 1499 1499 1499 1499 1499 1499 1499 1499 1499 1499 1499 1499 1499 1499 1500
1496 1495 1496 1498 1501 1504 1502 1501 1487 1484 1481 1479 1479 1479 1479 1480 1481 1482 1484 1485 1487 1488 1490 1491 1492 1493 1494 1495 1495 1495 1495 1495 1495 1496 1496 1496 1496 1496 1496 1496 1496 1496 1496 1496 1495 1495 1495 1496 1496
1495 1494 1496 1498 1501 1506 1504 1505 1489 1484 1480 1477 1476 1476 1477 1478 1479 1480 1481 1483 1484 1486 1487 1488 1489 1490 1491 1491 1492 1492 1492 1493 1493 1493 1492 1492 1493 1492 1492 1492 1492 1492 1492 1492 1492 1492 1492 1491 1492
1494 1497 1499 1503 1506 1508 1502 1504 1491 1483 1476 1475 1474 1474 1475 1476 1477 1478 1479 1481 1482 1483 1484 1485 1486 1487 1488 1488 1489 1489 1489 1489 1489 1489 1489 1489 1489 1489 1489 1489 1488 1488 1488 1488 1488 1488 1488 1488 1488
1494 1501 1509 1508 1514 1505 1499 1499 1487 1476 1473 1472 1472 1473 1474 1474 1475 1476 1477 1478 1479 1480 1481 1482 1483 1484 1485 1485 1486 1486 1486 1486 1486 1486 1486 1485 1485 1485 1485 1485 1484 1484 1484 1484 1484 1484 1484 1484 1484
1494 1496 1505 1507 1507 1503 1500 1496 1482 1474 1471 1470 1471 1472 1472 1473 1474 1475 1475 1476 1477 1478 1479 1480 1480 1481 1482 1482 1482 1483 1483 1483 1483 1483 1482 1482 1482 1482 1482 1481 1480 1480 1480 1480 1479 1479 1479 1480 1480
1493 1496 1497 1506 1511 1508 1498 1491 1479 1472 1471 1470 1470 1470 1471 1472 1473 1473 1474 1474 1475 1476 1476 1477 1477 1478 1478 1479 1479 1479 1480 1480 1480 1480 1479 1479 1479 1479 1478 1478 1477 1477 1476 1476 1475 1475 1475 1476 1476
1490 1493 1501 1505 1504 1499 1493 1490 1480 1473 1472 1471 1470 1470 1470 1471 1472 1472 1473 1473 1473 1473 1474 1475 1475 1475 1476 1476 1476 1476 1477 1477 1477 1476 1476 1476 1476 1475 1475 1474 1474 1473 1473 1472 1472 1472 1471 1472 1472
1492 1494 1496 1502 1503 1501 1496 1483 1471 1470 1470 1470 1470 1470 1470 1470 1471 1471 1471 1472 1472 1472 1472 1472 1472 1473 1473 1473 1473 1474 1474 1474 1474 1473 1473 1473 1472 1472 1472 1471 1470 1470 1470 1469 1469 1468 1468 1468 1468
1488 1489 1494 1498 1501 1505 1501 1485 1468 1468 1468 1469 1470 1470 1470 1470 1470 1470 1470 1470 1470 1470 1470 1470 1470 1470 1470 1470 1470 1470 1471 1471 1470 1470 1470 1470 1469 1469 1468 1468 1467 1467 1466 1466 1465 1465 1465 1464 1464